Location: Aultman
(40.9284°N, 81.4173°W)
Time: 08:27:00
(UTC+00:00)

Cosmos 1538 Rocket - Pass Details

Date: 24 January 2021
Orbit: 753 x 791 km, 74.0° (Epoch: 02 March)

Event Time Altitude Azimuth Distance (km) Brightness Sun altitude
Rises 23:10:02 0° 338° (NNW) 3,212 7.3 -7.2°
Reaches altitude 10° 23:12:24 10° 337° (NNW) 2,283 6.5 -7.7°
Maximum altitude 23:17:33 74° 254° (WSW) 787 4.3 -8.6°
Drops below altitude 10° 23:22:42 10° 169° (S) 2,276 6.5 -9.5°
Sets 23:25:03 0° 168° (SSE) 3,201 7.3 -9.9°
